Location: *
(49.0044°N, 9.5056°E)
Time: 12:32:17
(UTC+00:00)

Cosmos 1190 Rocket - Pass Details

Date: 22 September 2019
Orbit: 757 x 780 km, 74.1° (Epoch: 16 October)

Event Time Altitude Azimuth Distance (km) Brightness Sun altitude
Rises 18:33:29 0° 335° (NNW) 3,271 7.9 -12.6°
Reaches altitude 10° 18:35:54 10° 334° (NNW) 2,336 7.1 -13.0°
Maximum altitude 18:41:11 76° 250° (WSW) 800 4.2 -13.8°
Drops below altitude 10° 18:46:25 10° 165° (SSE) 2,304 6.2 -14.6°
Enters shadow 18:47:50 - 164° (SSE) 2,853 6.6 -14.9°
